カタログに戻る

ONEWEB-0417

運用中通信PO
NORAD 50492·PAYLOAD·🇬🇧 United Kingdom

打ち上げ Dec 27, 2021 から Baikonur Cosmodrome

Loading…

次のパス (今後24時間)

TLE

最新Source: CelesTrak SupGP

元期: Sep 14, 2026, 22:45 UTC

1 50492C 21132Z   26257.94844167  .00001866  00000+0  47401-2 0  2579
2 50492  87.9162 317.6218 0001974 106.5087 289.1712 13.18683061    19

AllMySatでONEWEB-0417をリアルタイム追跡

Download on the App Store